Location: Isle of Man Observatory
(54.1776°N, 4.6264°W)
Time: 12:53:49
(UTC+01:00)

Envisat - Visible Passes

Search period start: 22 March 2019 00:00
Search period end: 01 April 2019 01:00
Orbit: 764 x 766 km, 98.2° (Epoch: 22 March)

Date Brightness Start Highest point End Pass type
(mag) Time Alt. Az. Time Alt. Az. Time Alt. Az.
22 Mar 5.9 21:24:06 10° WSW 21:27:05 15° W 21:30:03 10° NW visible
23 Mar 5.2 20:45:29 10° SSW 20:49:51 29° W 20:54:16 10° NNW visible
24 Mar 4.0 20:07:52 10° S 20:12:50 53° W 20:17:51 10° NNW visible
25 Mar 5.8 21:12:11 10° SW 21:15:42 19° W 21:19:14 10° NW visible
26 Mar 4.9 20:33:56 10° SSW 20:38:32 34° W 20:43:11 10° NNW visible
27 Mar 6.2 21:39:54 10° WSW 21:41:38 12° W 21:43:24 10° WNW visible
28 Mar 5.6 21:00:24 10° SW 21:04:20 22° W 21:08:18 10° NW visible
29 Mar 4.5 20:22:27 10° SSW 20:27:14 41° W 20:32:04 10° NNW visible
30 Mar 6.0 21:27:33 10° WSW 21:30:15 14° W 21:32:57 10° NW visible
31 Mar 5.3 21:48:44 10° SSW 21:53:00 27° W 21:57:18 10° NW visible
